Weather in Scranton

United States     41°24′22″N   75°39′42″W
В апреле 2022 года жителям России запретили посещать сайт meteo.paraplan.net по решению Генеральной прокуратуры. Аудитория сайта уменьшилась в 10 раз. Владельцы сайта не видят смысла в поддержке погодного сервера в таких условиях. Сайт будет закрыт в октябре.
temp.,
°C
wind,
m/s
gust,
m/s
humid.,
%
clouds,
%
prec.,
mm/h
press.,
hPa
HPBL,
m
4 october, tue
tue423:00+7nne1272100 0.0 102448
02:00+7nne0171100 0.1 102335
05:00+6nnw2593100 0.9 1021203
08:00+6n2993100 3.3 1021394
11:00+7n21092100 11.0 1021553
14:00+7n31294100 19.9 1019583
17:00+7n31096100 3.2 1019618
20:00+8n31197100 9.1 1019519
5 october, wed
wed523:00+8n31095100 1.1 1018461
02:00+8nnw2796100 1.5 1017343
05:00+9nnw2797100 0.1 1017342
08:00+9nw2798100 0.8 1016331
11:00+9nw1494100 0.3 1017215
14:00+15nne256577 0.3 1016569
17:00+17n25545 0.0 1015522
20:00+9nnw11810 0.0 101711
6 october, thu
thu623:00+7n11903 0.0 101710
02:00+6nw11924 0.0 101810
05:00+6nw01945 0.0 101810
08:00+7nnw118847 0.0 101823
11:00+16wnw115752 0.0 1016379
14:00+20wsw1149100 0.0 1015800
17:00+19sse1163100 0.0 101471
20:00+13s2283100 0.0 101528
7 october, fri
fri723:00+12ssw129181 0.0 101433
02:00+10s119580 0.0 101422
05:00+9s2296100 0.0 101437
08:00+10s24915 0.0 1014128
11:00+17w256046 0.0 1013983
14:00+11nw51084100 0.1 1015622
17:00+8nnw389361 1.0 1017762
20:00+6nw5974100 1.1 10191057
8 october, sat
sat823:00+6nw51060100 0.0 10201396
02:00+5nw51161100 0.0 10211379
05:00+4nw410775 0.0 1022962
08:00+2wnw311703 0.0 1023766
11:00+7nw58496 0.0 10231355
14:00+11wnw47426 0.0 10211679
17:00+11wnw37465 0.0 10191692
20:00+5wsw11675 0.0 102118